Theta_e
278 283 285 285 285 286 285 285 281 278 278 282 278 284 286 286 286 283 283 287 290 291 292 294 294 295 295 295 295 296 297 297 297 297 297 297 298 298
283 284 284 284 284 285 284 284 284 282 275 271 284 286 285 285 285 282 283 287 288 289 291 292 293 294 294 294 294 294 295 295 295 296 296 296 296 297
280 283 283 284 283 283 283 283 283 283 280 280 274 283 282 282 283 278 279 281 280 287 290 291 293 292 293 292 293 293 293 293 294 293 294 294 295 295
278 282 282 283 282 283 283 282 282 283 281 280 282 282 282 274 274 273 280 282 280 285 288 291 292 291 291 292 292 292 292 291 292 292 292 292 293 293
281 281 281 282 281 282 282 282 282 283 282 281 281 282 282 275 275 276 276 277 281 285 287 288 291 289 290 290 292 292 291 291 291 291 291 290 291 291
281 281 282 282 282 282 282 282 282 281 281 281 280 281 281 281 272 274 276 277 279 281 283 285 287 288 288 288 289 291 291 290 290 290 290 289 289 289
280 281 282 282 284 283 282 281 281 280 280 279 279 279 279 278 273 273 275 275 276 275 276 277 278 279 279 282 285 290 290 289 289 290 289 288 287 287
279 280 281 282 283 285 286 285 282 279 278 278 278 277 278 275 273 272 270 271 273 274 274 276 276 277 278 277 284 289 290 289 288 288 288 287 286 286
280 281 281 282 282 282 284 285 285 284 283 278 276 276 274 276 275 271 270 270 271 273 272 273 273 275 278 279 286 289 289 289 288 287 287 286 285 285
281 281 281 281 281 280 280 279 280 281 282 282 280 279 278 277 277 275 272 269 269 270 270 270 269 272 274 276 285 287 288 289 288 287 286 285 284 284
282 282 281 280 281 282 280 278 277 278 281 284 285 285 285 285 282 275 276 276 276 270 269 270 270 270 270 272 274 283 286 287 288 286 285 284 284 283
281 281 282 281 282 283 280 279 277 278 279 276 276 281 284 283 286 283 280 278 277 273 272 272 268 269 269 270 270 271 274 286 286 285 285 284 283 272
280 280 280 283 284 284 284 281 280 280 279 278 275 274 273 274 275 275 278 280 279 278 274 272 265 265 263 266 268 269 270 272 271 275 283 284 283 280
279 279 279 282 283 284 283 284 285 285 281 278 277 275 274 274 275 276 277 278 280 280 276 275 269 270 263 261 267 268 269 269 269 270 269 276 281 281
279 279 281 281 281 281 281 283 282 281 280 278 278 276 277 277 276 273 274 275 276 278 279 275 275 272 273 275 275 272 269 268 267 267 265 266 267 265
275 272 275 276 276 276 272 274 275 275 274 273 272 273 271 270 272 273 273 273 275 274 276 277 277 277 275 275 276 275 268 272 265 264 264 264 265 264
264 263 265 265 265 266 267 266 267 267 268 268 267 268 268 273 274 270 273 272 274 269 270 272 275 276 276 272 267 269 268 264 267 266 263 261 265 265
263 261 262 263 263 263 263 263 264 267 266 264 262 266 267 268 269 269 270 271 270 268 267 269 272 271 269 269 275 269 263 264 264 262 260 260 260 262
264 260 261 262 261 262 262 261 261 261 258 259 261 261 262 264 264 263 264 267 265 265 264 265 267 268 263 263 265 278 267 260 259 260 259 260 259 264
261 261 263 263 262 262 262 260 261 259 258 260 258 257 256 258 257 258 260 261 260 261 261 260 264 267 267 266 263 265 277 263 259 258 258 256 262 271
263 262 262 262 261 261 262 261 260 260 259 258 256 257 256 256 256 255 255 258 259 257 258 257 263 265 263 264 262 259 262 272 274 266 258 259 256 255
258 259 260 257 258 258 259 258 257 256 256 257 258 257 256 256 258 256 255 256 255 258 258 256 254 256 258 260 258 255 256 259 264 270 272 270 261 258
259 256 257 258 256 256 256 256 257 259 258 259 258 258 256 254 258 257 257 257 256 255 255 255 253 255 254 258 257 254 252 253 253 257 259 271 273 274
Wind_Speed
4 3 2 1 2 2 2 1 3 3 3 3 0 1 2 1 1 2 4 8 9 9 8 8 8 7 6 4 3 3 2 1 2 2 2 2 3 5
3 4 3 2 2 2 2 2 2 2 2 2 2 1 1 2 3 2 4 7 9 9 8 8 8 7 6 3 2 3 1 1 1 0 1 2 4 6
3 4 5 5 3 3 3 3 3 4 5 2 2 1 2 3 4 3 3 4 4 9 8 8 8 7 7 5 5 4 3 3 2 2 1 3 5 6
4 6 7 5 6 5 5 6 5 5 4 7 2 1 1 2 4 4 3 2 3 7 9 9 8 7 7 7 7 7 6 5 4 3 3 4 5 7
6 6 6 6 6 5 6 6 5 5 5 5 4 2 2 0 3 3 3 2 2 8 9 10 10 6 4 6 10 10 9 7 7 6 4 4 5 6
6 7 6 7 7 7 7 7 5 5 5 5 4 4 2 1 1 2 4 1 2 1 4 4 6 6 8 11 13 12 11 9 8 7 5 5 5 6
6 7 7 8 12 10 5 6 6 5 5 6 6 4 4 2 3 1 2 2 3 1 2 2 1 2 5 8 9 10 12 10 9 8 6 5 5 5
6 7 7 8 11 16 16 14 10 7 9 7 7 8 8 3 2 2 2 1 3 1 1 3 2 3 4 3 9 11 13 11 10 9 8 7 5 6
7 7 6 5 7 6 10 14 15 18 19 8 7 7 3 5 3 2 3 3 4 3 2 4 1 3 3 5 10 11 12 13 10 9 8 7 6 6
8 7 7 6 6 7 6 7 7 8 11 10 11 9 8 5 6 5 4 2 2 3 3 4 1 3 3 2 9 12 12 14 12 11 8 6 5 7
6 7 7 7 10 13 7 8 9 10 11 19 21 18 18 17 11 3 4 4 6 3 2 2 2 3 2 3 2 9 11 14 12 11 8 6 6 7
7 8 13 10 14 16 9 8 10 9 7 5 5 12 15 12 18 10 6 6 7 4 3 5 1 1 4 2 2 2 3 7 9 8 9 9 8 1
5 4 5 13 15 17 18 10 11 8 11 9 6 4 3 3 4 3 6 8 8 9 5 4 2 1 1 3 3 2 1 2 1 3 8 11 11 8
3 3 3 10 12 13 12 14 15 12 6 7 6 5 4 4 5 6 7 7 7 10 5 8 4 5 4 1 2 3 2 2 2 3 2 6 12 12
2 1 3 4 6 4 8 10 9 5 6 6 5 5 4 5 4 2 4 5 6 7 6 6 5 4 4 5 4 3 2 3 2 2 1 3 3 2
1 2 2 4 6 7 3 5 1 2 2 2 2 2 1 1 3 3 3 3 4 4 6 8 9 9 5 7 6 6 4 3 1 2 2 2 2 3
4 2 1 1 2 2 3 2 2 2 2 2 2 2 3 3 5 3 3 3 5 3 2 2 5 5 3 4 2 4 3 3 4 2 2 3 4 4
3 2 2 2 2 2 2 3 2 1 1 1 1 2 2 2 1 1 1 2 3 3 2 2 2 2 2 3 11 5 2 3 2 3 2 2 4 3
2 3 3 3 3 3 3 3 3 2 1 2 2 3 2 2 2 1 1 1 2 2 3 2 2 3 3 3 4 14 4 3 1 1 3 4 4 5
2 3 4 4 4 4 3 3 3 2 3 3 3 3 3 3 2 3 3 3 3 1 1 1 2 3 4 4 4 4 12 4 4 3 2 2 4 10
3 3 4 4 4 4 4 4 4 4 4 4 3 4 4 3 3 3 3 4 4 2 3 3 3 2 2 2 2 4 4 4 5 5 3 2 1 4
3 4 4 3 4 4 3 3 3 3 4 4 5 4 4 4 4 4 4 4 4 4 3 1 3 2 2 3 3 3 3 4 4 6 8 6 5 3
5 4 4 4 3 4 4 4 4 5 4 5 5 5 4 4 6 4 4 4 4 3 3 1 1 2 1 2 3 2 2 3 3 4 4 9 14 17
Wind_Direction
173 158 170 195 143 123 113 189 201 245 271 312 108 137 142 191 285 303 282 289 290 285 279 268 259 263 259 261 260 271 311 339 278 277 310 334 344 343
151 165 186 187 174 152 156 202 198 246 245 205 351 62 150 287 302 263 284 291 292 280 273 262 255 245 242 237 237 222 210 246 230 304 332 342 338 351
151 183 203 193 193 179 195 206 223 218 246 266 246 308 314 327 321 285 276 283 279 285 274 257 251 247 237 224 215 213 211 214 236 221 263 327 338 343
182 204 213 205 202 189 205 213 208 225 227 253 219 230 272 313 273 288 272 248 257 269 284 265 252 257 244 233 228 221 227 233 234 243 273 321 320 324
194 207 214 200 209 201 204 210 212 223 221 240 259 208 215 56 322 298 276 290 251 266 284 269 240 240 239 268 245 235 228 239 255 260 278 293 307 322
202 208 210 207 213 202 205 214 196 208 222 236 235 243 226 240 3 274 304 287 284 282 289 253 238 243 255 291 261 235 228 233 242 250 261 275 288 306
207 208 216 212 221 217 206 209 192 214 225 231 242 228 223 211 202 247 258 299 282 209 303 292 283 276 282 286 253 234 218 233 242 247 246 252 268 292
214 214 217 215 228 236 228 218 212 208 225 221 232 235 227 186 188 199 202 28 314 293 85 278 175 270 272 245 244 230 225 232 237 238 232 239 264 293
214 212 210 207 207 221 243 245 240 227 225 216 224 219 211 197 182 193 210 185 221 265 90 275 255 271 250 255 239 227 236 234 230 227 230 245 265 292
216 210 206 192 191 206 213 230 238 246 241 234 221 228 225 209 189 189 205 210 306 277 137 257 244 256 296 270 258 256 246 228 221 220 228 251 275 293
215 210 207 213 207 230 210 222 237 246 256 251 251 245 240 239 226 154 207 264 283 259 239 156 272 280 281 284 281 270 252 243 213 221 230 251 278 295
216 214 210 213 220 223 225 228 237 239 225 247 263 254 248 245 243 219 204 214 234 307 238 179 224 157 323 283 307 331 360 196 200 231 237 257 271 126
211 206 207 230 238 236 237 221 229 222 229 227 233 240 254 246 244 233 204 216 227 230 204 154 189 113 132 295 309 310 73 314 325 291 268 269 272 272
203 189 198 243 256 258 260 260 258 250 210 212 214 224 227 230 241 240 236 229 235 241 217 182 210 184 170 311 247 331 310 254 182 246 236 270 280 269
51 225 279 304 305 329 308 292 273 243 233 230 220 208 203 218 219 220 239 236 241 233 224 192 205 192 194 232 244 212 280 281 212 228 285 234 229 200
37 18 306 314 312 295 319 287 258 238 202 192 214 221 211 185 223 205 226 208 229 245 222 216 216 223 213 226 232 244 190 237 263 238 216 268 263 222
115 64 44 26 348 329 314 294 287 209 170 202 189 228 228 226 241 210 226 204 211 206 257 244 222 221 230 158 184 226 234 229 235 222 139 273 264 237
88 164 222 217 224 237 261 291 315 293 238 194 210 174 205 227 248 289 231 197 200 224 232 230 150 123 22 292 215 231 218 226 226 193 179 174 282 264
149 201 200 202 226 228 231 214 241 229 190 200 208 214 203 222 200 219 259 240 262 229 243 181 157 145 138 210 286 213 199 212 172 292 177 190 210 264
175 201 225 212 219 224 221 213 230 216 225 227 218 221 208 187 197 227 223 196 203 233 275 322 185 181 183 197 204 252 223 179 173 225 252 263 249 282
222 233 232 229 224 217 229 225 220 224 216 205 219 203 208 178 226 224 218 217 185 176 226 229 223 340 124 70 18 311 299 303 242 187 165 137 273 321
223 229 246 230 231 223 229 219 222 218 226 228 237 210 205 195 216 208 209 206 211 204 222 246 343 34 80 159 223 241 292 320 331 309 209 215 165 264
242 228 227 231 218 223 224 227 227 244 214 220 220 223 189 204 216 208 208 207 205 200 198 247 5 61 116 169 177 227 295 304 341 337 308 270 272 272